Location: ???????
(55.4362°N, 38.1183°E)
Time: 12:34:29
(UTC+00:00)

Cosmos 2219 Rocket - Pass Details

Date: 28 October 2021
Orbit: 826 x 848 km, 71.0° (Epoch: 01 December)

Event Time Altitude Azimuth Distance (km) Brightness Sun altitude
Exits shadow 00:35:23 54° 47° (NE) 1,019 2.8 -32.3°
Maximum altitude 00:35:24 54° 48° (NE) 1,019 2.8 -32.3°
Drops below altitude 10° 00:40:57 10° 126° (SE) 2,467 4.9 -31.6°
Sets 00:43:28 0° 131° (SE) 3,401 5.7 -31.3°
